Time,TemperatureF,DewpointF,PressureIn,WindDirection,WindDirectionDegrees,WindSpeedMPH,WindSpeedGustMPH,Humidity,HourlyPrecipIn,Conditions,Clouds,dailyrainin,SoftwareType,DateUTC
2013-01-23 00:02:00,13.0,6.0,-100.00,SW,215,1.0,3.0,74,-99.99,,,-99.99,,2013-01-23 07:02:00,
2013-01-23 00:12:00,13.0,6.0,-100.00,SW,222,1.0,3.0,74,-99.99,,,-99.99,,2013-01-23 07:12:00,
2013-01-23 00:22:00,13.0,6.0,-100.00,SW,222,1.0,3.0,74,-99.99,,,-99.99,,2013-01-23 07:22:00,
2013-01-23 00:32:00,13.0,6.0,-100.00,SW,222,1.0,3.0,74,-99.99,,,-99.99,,2013-01-23 07:32:00,
2013-01-23 00:42:00,13.0,6.0,-100.00,SSW,202,1.0,4.0,75,-99.99,,,-99.99,,2013-01-23 07:42:00,
2013-01-23 00:53:00,13.0,6.0,-100.00,SSW,202,1.0,4.0,75,-99.99,,,-99.99,,2013-01-23 07:53:00,
2013-01-23 01:02:00,12.0,6.0,-100.00,WSW,239,2.0,4.0,74,-99.99,,,-99.99,,2013-01-23 08:02:00,
2013-01-23 01:12:00,12.0,6.0,-100.00,WSW,238,1.0,2.0,75,-99.99,,,-99.99,,2013-01-23 08:12:00,
2013-01-23 01:22:00,12.0,6.0,-100.00,WSW,238,1.0,2.0,75,-99.99,,,-99.99,,2013-01-23 08:22:00,
2013-01-23 01:32:00,12.0,6.0,-100.00,WSW,238,1.0,2.0,75,-99.99,,,-99.99,,2013-01-23 08:32:00,
2013-01-23 01:42:00,11.0,5.0,-100.00,WSW,253,1.0,4.0,76,-99.99,,,-99.99,,2013-01-23 08:42:00,
2013-01-23 01:53:00,11.0,5.0,-100.00,SW,222,2.0,3.0,76,-99.99,,,-99.99,,2013-01-23 08:53:00,
2013-01-23 02:02:00,11.0,5.0,-100.00,SW,222,2.0,3.0,76,-99.99,,,-99.99,,2013-01-23 09:02:00,
2013-01-23 02:12:00,11.0,5.0,-100.00,WSW,243,2.0,4.0,77,-99.99,,,-99.99,,2013-01-23 09:12:00,
2013-01-23 02:22:00,11.0,5.0,-100.00,WSW,243,2.0,4.0,77,-99.99,,,-99.99,,2013-01-23 09:22:00,
2013-01-23 02:43:00,11.0,5.0,-100.00,South,188,2.0,4.0,76,-99.99,,,-99.99,,2013-01-23 09:43:00,
2013-01-23 02:53:00,11.0,5.0,-100.00,South,188,2.0,4.0,76,-99.99,,,-99.99,,2013-01-23 09:53:00,
2013-01-23 03:02:00,10.0,4.0,-100.00,WSW,243,2.0,3.0,77,-99.99,,,-99.99,,2013-01-23 10:02:00,
2013-01-23 03:12:00,10.0,4.0,-100.00,WSW,249,2.0,4.0,77,-99.99,,,-99.99,,2013-01-23 10:12:00,
2013-01-23 03:22:00,10.0,4.0,-100.00,WSW,249,2.0,4.0,77,-99.99,,,-99.99,,2013-01-23 10:22:00,
2013-01-23 03:42:00,11.0,5.0,-100.00,SW,233,1.0,2.0,76,-99.99,,,-99.99,,2013-01-23 10:42:00,
2013-01-23 03:53:00,10.0,4.0,-100.00,WSW,248,1.0,4.0,76,-99.99,,,-99.99,,2013-01-23 10:53:00,
2013-01-23 04:02:00,10.0,4.0,-100.00,WSW,248,1.0,4.0,76,-99.99,,,-99.99,,2013-01-23 11:02:00,
2013-01-23 04:12:00,10.0,4.0,-100.00,WSW,248,1.0,4.0,76,-99.99,,,-99.99,,2013-01-23 11:12:00,
2013-01-23 04:22:00,10.0,4.0,-100.00,WSW,248,1.0,4.0,76,-99.99,,,-99.99,,2013-01-23 11:22:00,
2013-01-23 04:42:00,11.0,5.0,-100.00,WSW,251,3.0,5.0,77,-99.99,,,-99.99,,2013-01-23 11:42:00,
2013-01-23 04:53:00,11.0,5.0,-100.00,WSW,251,3.0,5.0,77,-99.99,,,-99.99,,2013-01-23 11:53:00,
2013-01-23 05:03:00,11.0,5.0,-100.00,SW,230,2.0,5.0,77,-99.99,,,-99.99,,2013-01-23 12:03:00,
2013-01-23 05:12:00,10.0,5.0,-100.00,WSW,248,1.0,3.0,78,-99.99,,,-99.99,,2013-01-23 12:12:00,
2013-01-23 05:22:00,10.0,5.0,-100.00,WSW,248,1.0,3.0,78,-99.99,,,-99.99,,2013-01-23 12:22:00,
2013-01-23 05:42:00,11.0,5.0,-100.00,SSW,210,1.0,3.0,78,-99.99,,,-99.99,,2013-01-23 12:42:00,
2013-01-23 05:53:00,11.0,5.0,-100.00,SSW,210,1.0,3.0,78,-99.99,,,-99.99,,2013-01-23 12:53:00,
2013-01-23 06:03:00,11.0,6.0,-100.00,SW,234,1.0,3.0,78,-99.99,,,-99.99,,2013-01-23 13:03:00,
2013-01-23 06:12:00,11.0,6.0,-100.00,SW,236,1.0,3.0,78,-99.99,,,-99.99,,2013-01-23 13:12:00,
2013-01-23 06:23:00,11.0,6.0,-100.00,SW,236,1.0,3.0,78,-99.99,,,-99.99,,2013-01-23 13:23:00,
2013-01-23 06:33:00,11.0,6.0,-100.00,SW,236,1.0,3.0,78,-99.99,,,-99.99,,2013-01-23 13:33:00,
2013-01-23 06:42:00,10.0,4.0,-100.00,SW,221,1.0,2.0,77,-99.99,,,-99.99,,2013-01-23 13:42:00,
2013-01-23 06:53:00,10.0,4.0,-100.00,SW,221,1.0,2.0,77,-99.99,,,-99.99,,2013-01-23 13:53:00,
2013-01-23 07:02:00,9.0,4.0,-100.00,SW,224,2.0,3.0,78,-99.99,,,-99.99,,2013-01-23 14:02:00,
2013-01-23 07:12:00,11.0,5.0,-100.00,SSW,211,1.0,2.0,78,-99.99,,,-99.99,,2013-01-23 14:12:00,
2013-01-23 07:23:00,11.0,5.0,-100.00,SSW,211,1.0,2.0,78,-99.99,,,-99.99,,2013-01-23 14:23:00,
2013-01-23 07:33:00,11.0,5.0,-100.00,SSW,211,1.0,2.0,78,-99.99,,,-99.99,,2013-01-23 14:33:00,
2013-01-23 07:42:00,12.0,6.0,-100.00,WSW,249,4.0,6.0,78,-99.99,,,-99.99,,2013-01-23 14:42:00,
2013-01-23 07:53:00,12.0,6.0,-100.00,WSW,249,4.0,6.0,78,-99.99,,,-99.99,,2013-01-23 14:53:00,
2013-01-23 08:02:00,12.0,6.0,-100.00,ESE,120,1.0,4.0,77,-99.99,,,-99.99,,2013-01-23 15:02:00,
2013-01-23 08:12:00,11.0,5.0,-100.00,SSW,201,1.0,2.0,77,-99.99,,,-99.99,,2013-01-23 15:12:00,
2013-01-23 08:22:00,11.0,5.0,-100.00,SSW,201,1.0,2.0,77,-99.99,,,-99.99,,2013-01-23 15:22:00,
2013-01-23 08:33:00,11.0,5.0,-100.00,SSW,201,1.0,2.0,77,-99.99,,,-99.99,,2013-01-23 15:33:00,
2013-01-23 08:43:00,11.0,5.0,-100.00,WSW,239,2.0,4.0,77,-99.99,,,-99.99,,2013-01-23 15:43:00,
2013-01-23 08:53:00,11.0,5.0,-100.00,WSW,239,2.0,4.0,77,-99.99,,,-99.99,,2013-01-23 15:53:00,
2013-01-23 09:03:00,12.0,7.0,-100.00,SSW,201,1.0,2.0,76,-99.99,,,-99.99,,2013-01-23 16:03:00,
2013-01-23 09:12:00,14.0,7.0,-100.00,SW,216,1.0,3.0,73,-99.99,,,-99.99,,2013-01-23 16:12:00,
2013-01-23 09:22:00,14.0,7.0,-100.00,SW,216,1.0,3.0,73,-99.99,,,-99.99,,2013-01-23 16:22:00,
2013-01-23 09:42:00,17.0,9.0,-100.00,South,170,1.0,3.0,70,-99.99,,,-99.99,,2013-01-23 16:42:00,
2013-01-23 09:53:00,17.0,9.0,-100.00,South,170,1.0,3.0,70,-99.99,,,-99.99,,2013-01-23 16:53:00,
2013-01-23 10:03:00,18.0,9.0,-100.00,SSE,163,1.0,2.0,68,-99.99,,,-99.99,,2013-01-23 17:03:00,
2013-01-23 10:12:00,19.0,10.0,-100.00,ESE,109,1.0,2.0,66,-99.99,,,-99.99,,2013-01-23 17:12:00,
2013-01-23 10:22:00,19.0,10.0,-100.00,ESE,109,1.0,2.0,66,-99.99,,,-99.99,,2013-01-23 17:22:00,
2013-01-23 10:33:00,19.0,10.0,-100.00,ESE,109,1.0,2.0,66,-99.99,,,-99.99,,2013-01-23 17:33:00,
2013-01-23 10:42:00,22.0,11.0,-100.00,SSE,168,1.0,3.0,62,-99.99,,,-99.99,,2013-01-23 17:42:00,
2013-01-23 10:53:00,22.0,11.0,-100.00,SSE,168,1.0,3.0,62,-99.99,,,-99.99,,2013-01-23 17:53:00,
2013-01-23 11:03:00,24.0,12.0,-100.00,South,183,1.0,1.0,58,-99.99,,,-99.99,,2013-01-23 18:03:00,
2013-01-23 11:12:00,25.0,12.0,-100.00,West,259,1.0,4.0,57,-99.99,,,-99.99,,2013-01-23 18:12:00,
2013-01-23 11:23:00,25.0,12.0,-100.00,West,259,1.0,4.0,57,-99.99,,,-99.99,,2013-01-23 18:23:00,
2013-01-23 11:32:00,25.0,12.0,-100.00,West,259,1.0,4.0,57,-99.99,,,-99.99,,2013-01-23 18:32:00,
2013-01-23 11:43:00,29.0,14.0,-100.00,SSW,198,1.0,3.0,52,-99.99,,,-99.99,,2013-01-23 18:43:00,
2013-01-23 11:53:00,29.0,14.0,-100.00,SSW,198,1.0,3.0,52,-99.99,,,-99.99,,2013-01-23 18:53:00,
2013-01-23 12:02:00,29.0,15.0,-100.00,South,176,2.0,5.0,53,-99.99,,,-99.99,,2013-01-23 19:02:00,
2013-01-23 12:12:00,29.0,14.0,-100.00,SW,234,2.0,3.0,54,-99.99,,,-99.99,,2013-01-23 19:12:00,
2013-01-23 12:22:00,29.0,14.0,-100.00,SW,234,2.0,3.0,54,-99.99,,,-99.99,,2013-01-23 19:22:00,
2013-01-23 12:32:00,29.0,14.0,-100.00,SW,234,2.0,3.0,54,-99.99,,,-99.99,,2013-01-23 19:32:00,
2013-01-23 12:42:00,31.0,16.0,-100.00,ENE,76,2.0,3.0,52,-99.99,,,-99.99,,2013-01-23 19:42:00,
2013-01-23 12:53:00,31.0,16.0,-100.00,ENE,76,2.0,3.0,52,-99.99,,,-99.99,,2013-01-23 19:53:00,
2013-01-23 13:03:00,35.0,17.0,-100.00,SW,231,1.0,2.0,48,-99.99,,,-99.99,,2013-01-23 20:03:00,
2013-01-23 13:12:00,37.0,16.0,-100.00,ESE,102,1.0,3.0,42,-99.99,,,-99.99,,2013-01-23 20:12:00,
2013-01-23 13:22:00,37.0,16.0,-100.00,ESE,102,1.0,3.0,42,-99.99,,,-99.99,,2013-01-23 20:22:00,
2013-01-23 13:32:00,37.0,16.0,-100.00,ESE,102,1.0,3.0,42,-99.99,,,-99.99,,2013-01-23 20:32:00,
2013-01-23 13:42:00,38.0,18.0,-100.00,SSW,200,1.0,4.0,44,-99.99,,,-99.99,,2013-01-23 20:42:00,
2013-01-23 13:53:00,38.0,18.0,-100.00,SSW,200,1.0,4.0,44,-99.99,,,-99.99,,2013-01-23 20:53:00,
2013-01-23 14:02:00,40.0,17.0,-100.00,ENE,75,1.0,4.0,39,-99.99,,,-99.99,,2013-01-23 21:02:00,
2013-01-23 14:12:00,41.0,17.0,-100.00,WNW,302,1.0,3.0,38,-99.99,,,-99.99,,2013-01-23 21:12:00,
2013-01-23 14:22:00,41.0,17.0,-100.00,WNW,302,1.0,3.0,38,-99.99,,,-99.99,,2013-01-23 21:22:00,
2013-01-23 14:33:00,41.0,17.0,-100.00,WNW,302,1.0,3.0,38,-99.99,,,-99.99,,2013-01-23 21:33:00,
2013-01-23 14:42:00,41.0,19.0,-100.00,ESE,119,2.0,3.0,40,-99.99,,,-99.99,,2013-01-23 21:42:00,
2013-01-23 14:53:00,41.0,19.0,-100.00,ESE,119,2.0,3.0,40,-99.99,,,-99.99,,2013-01-23 21:53:00,
2013-01-23 15:02:00,41.0,19.0,-100.00,SW,222,2.0,3.0,39,-99.99,,,-99.99,,2013-01-23 22:02:00,
2013-01-23 15:12:00,42.0,19.0,-100.00,East,88,2.0,5.0,38,-99.99,,,-99.99,,2013-01-23 22:12:00,
2013-01-23 15:22:00,42.0,19.0,-100.00,East,88,2.0,5.0,38,-99.99,,,-99.99,,2013-01-23 22:22:00,
2013-01-23 15:33:00,42.0,19.0,-100.00,East,88,2.0,5.0,38,-99.99,,,-99.99,,2013-01-23 22:33:00,
2013-01-23 15:42:00,43.0,17.0,-100.00,North,10,2.0,7.0,35,-99.99,,,-99.99,,2013-01-23 22:42:00,
2013-01-23 15:53:00,43.0,17.0,-100.00,North,10,2.0,7.0,35,-99.99,,,-99.99,,2013-01-23 22:53:00,
2013-01-23 16:02:00,43.0,19.0,-100.00,SW,235,2.0,3.0,38,-99.99,,,-99.99,,2013-01-23 23:02:00,
2013-01-23 16:12:00,43.0,19.0,-100.00,WSW,253,2.0,4.0,37,-99.99,,,-99.99,,2013-01-23 23:12:00,
2013-01-23 16:22:00,43.0,19.0,-100.00,WSW,253,2.0,4.0,37,-99.99,,,-99.99,,2013-01-23 23:22:00,
2013-01-23 16:33:00,43.0,19.0,-100.00,WSW,253,2.0,4.0,37,-99.99,,,-99.99,,2013-01-23 23:33:00,
2013-01-23 16:42:00,39.0,21.0,-100.00,WSW,243,4.0,7.0,48,-99.99,,,-99.99,,2013-01-23 23:42:00,
2013-01-23 16:53:00,39.0,21.0,-100.00,WSW,243,4.0,7.0,48,-99.99,,,-99.99,,2013-01-23 23:53:00,
2013-01-23 17:02:00,39.0,21.0,-100.00,WSW,239,2.0,5.0,48,-99.99,,,-99.99,,2013-01-24 00:02:00,
2013-01-23 17:12:00,38.0,22.0,-100.00,WSW,242,4.0,6.0,51,-99.99,,,-99.99,,2013-01-24 00:12:00,
2013-01-23 17:22:00,38.0,22.0,-100.00,WSW,242,4.0,6.0,51,-99.99,,,-99.99,,2013-01-24 00:22:00,
2013-01-23 17:32:00,38.0,22.0,-100.00,WSW,242,4.0,6.0,51,-99.99,,,-99.99,,2013-01-24 00:32:00,
2013-01-23 17:42:00,36.0,21.0,-100.00,SW,230,3.0,8.0,55,-99.99,,,-99.99,,2013-01-24 00:42:00,
2013-01-23 17:53:00,36.0,21.0,-100.00,SW,230,3.0,8.0,55,-99.99,,,-99.99,,2013-01-24 00:53:00,
2013-01-23 18:02:00,34.0,21.0,-100.00,WSW,244,5.0,8.0,57,-99.99,,,-99.99,,2013-01-24 01:02:00,
2013-01-23 18:12:00,34.0,20.0,-100.00,SW,231,4.0,9.0,55,-99.99,,,-99.99,,2013-01-24 01:12:00,
2013-01-23 18:22:00,34.0,20.0,-100.00,SW,231,4.0,9.0,55,-99.99,,,-99.99,,2013-01-24 01:22:00,
2013-01-23 18:32:00,34.0,20.0,-100.00,SW,231,4.0,9.0,55,-99.99,,,-99.99,,2013-01-24 01:32:00,
2013-01-23 18:42:00,34.0,20.0,-100.00,West,266,3.0,7.0,56,-99.99,,,-99.99,,2013-01-24 01:42:00,
2013-01-23 18:52:00,34.0,20.0,-100.00,West,266,3.0,7.0,56,-99.99,,,-99.99,,2013-01-24 01:52:00,
2013-01-23 19:02:00,35.0,20.0,-100.00,WSW,252,5.0,8.0,55,-99.99,,,-99.99,,2013-01-24 02:02:00,
2013-01-23 19:12:00,34.0,20.0,-100.00,WSW,255,4.0,7.0,57,-99.99,,,-99.99,,2013-01-24 02:12:00,
2013-01-23 19:22:00,34.0,20.0,-100.00,WSW,255,4.0,7.0,57,-99.99,,,-99.99,,2013-01-24 02:22:00,
2013-01-23 19:32:00,34.0,20.0,-100.00,WSW,255,4.0,7.0,57,-99.99,,,-99.99,,2013-01-24 02:32:00,
2013-01-23 19:42:00,34.0,20.0,-100.00,WSW,255,4.0,7.0,57,-99.99,,,-99.99,,2013-01-24 02:42:00,
2013-01-23 20:02:00,32.0,18.0,-100.00,WSW,237,4.0,8.0,57,-99.99,,,-99.99,,2013-01-24 03:02:00,
2013-01-23 20:12:00,31.0,18.0,-100.00,WSW,242,3.0,6.0,57,-99.99,,,-99.99,,2013-01-24 03:12:00,
2013-01-23 20:22:00,31.0,18.0,-100.00,WSW,242,3.0,6.0,57,-99.99,,,-99.99,,2013-01-24 03:22:00,
2013-01-23 20:32:00,31.0,18.0,-100.00,WSW,242,3.0,6.0,57,-99.99,,,-99.99,,2013-01-24 03:32:00,
2013-01-23 20:42:00,30.0,18.0,-100.00,WSW,257,2.0,7.0,58,-99.99,,,-99.99,,2013-01-24 03:42:00,
2013-01-23 20:53:00,30.0,18.0,-100.00,WSW,257,2.0,7.0,58,-99.99,,,-99.99,,2013-01-24 03:53:00,
2013-01-23 21:02:00,29.0,17.0,-100.00,WSW,243,3.0,6.0,59,-99.99,,,-99.99,,2013-01-24 04:02:00,
2013-01-23 21:12:00,29.0,17.0,-100.00,SW,222,3.0,6.0,60,-99.99,,,-99.99,,2013-01-24 04:12:00,
2013-01-23 21:22:00,29.0,17.0,-100.00,SW,222,3.0,6.0,60,-99.99,,,-99.99,,2013-01-24 04:22:00,
2013-01-23 21:30:00,27.0,17.0,-100.00,SSW,196,2.0,3.0,64,-99.99,,,-99.99,,2013-01-24 04:30:00,
2013-01-23 21:32:00,29.0,17.0,-100.00,SW,222,3.0,6.0,60,-99.99,,,-99.99,,2013-01-24 04:32:00,
2013-01-23 21:42:00,28.0,17.0,-100.00,SSW,198,1.0,4.0,62,-99.99,,,-99.99,,2013-01-24 04:42:00,
2013-01-23 21:53:00,28.0,17.0,-100.00,SSW,198,1.0,4.0,62,-99.99,,,-99.99,,2013-01-24 04:53:00,
2013-01-23 22:03:00,27.0,17.0,-100.00,SSW,196,2.0,3.0,64,-99.99,,,-99.99,,2013-01-24 05:03:00,
2013-01-23 22:12:00,27.0,17.0,-100.00,SSW,196,2.0,3.0,64,-99.99,,,-99.99,,2013-01-24 05:12:00,
2013-01-23 22:22:00,27.0,17.0,-100.00,SSW,196,2.0,3.0,64,-99.99,,,-99.99,,2013-01-24 05:22:00,
2013-01-23 22:43:00,25.0,16.0,-100.00,WSW,247,2.0,4.0,68,-99.99,,,-99.99,,2013-01-24 05:43:00,
2013-01-23 22:53:00,25.0,16.0,-100.00,WSW,247,2.0,4.0,68,-99.99,,,-99.99,,2013-01-24 05:53:00,
2013-01-23 23:02:00,25.0,17.0,-100.00,SW,235,2.0,5.0,69,-99.99,,,-99.99,,2013-01-24 06:02:00,
2013-01-23 23:12:00,26.0,17.0,-100.00,SW,217,1.0,3.0,68,-99.99,,,-99.99,,2013-01-24 06:12:00,
2013-01-23 23:22:00,26.0,17.0,-100.00,SW,217,1.0,3.0,68,-99.99,,,-99.99,,2013-01-24 06:22:00,
2013-01-23 23:32:00,26.0,17.0,-100.00,SW,217,1.0,3.0,68,-99.99,,,-99.99,,2013-01-24 06:32:00,
2013-01-23 23:42:00,26.0,17.0,-100.00,WSW,238,3.0,9.0,68,-99.99,,,-99.99,,2013-01-24 06:42:00,
2013-01-23 23:52:00,26.0,17.0,-100.00,WSW,238,3.0,9.0,68,-99.99,,,-99.99,,2013-01-24 06:52:00,